Terminal Aerodrome Forecast
Issued by NWS

Home | Current Version | Previous Version | Text Only | Print | Product List | Glossary Off
Versions: 1 2 3 4 5 6 7 8 9 10 11 12 13 14

000
FTUS43 KUNR 272300
TAFGCC
TAF
KGCC 272322Z 2800/2824 35015KT P6SM BKN070
     FM280200 30010KT P6SM SCT120
     FM280900 28005KT P6SM SCT200=

USA.gov is the U.S. government's official web portal to all federal, state and local government web resources and services.